Location: Boullarre
(49.1305°N, 3.0047°E)
Time: 14:41:00
(UTC+00:00)

CZ-4B DEB - Pass Details

Date: 10 October 2023
Orbit: 838 x 858 km, 99.0° (Epoch: 01 December)

Event Time Altitude Azimuth Distance (km) Brightness Sun altitude
Rises 20:25:44 0° 224° (SW) 3,382 7.5 -32.0°
Reaches altitude 10° 20:30:11 10° 259° (W) 2,455 7.1 -32.6°
Maximum altitude 20:31:41 11° 275° (W) 2,380 7.2 -32.8°
Drops below altitude 10° 20:33:13 10° 292° (WNW) 2,461 7.4 -33.0°
Sets 20:37:44 0° 327° (NNW) 3,407 8.2 -33.7°
